Content
SEND FEEDBACK

Daily
Averages
Monthly
Summary
United States of America

BUENA VISTA, GEORGIA


Home > North America > United States > Georgia
Elevation: 682 feet     Latitude: 32 18N     Longitude: 084 31W

WEATHER
 
SELECT A DAY
Number of Records: 79,054;   Date Range: 7/11/11 - 10/29/14
 
SHARE

PRINT THIS DATA

[ ← Previous Day ]
WEATHER ALMANAC - FEBRUARY 13, 2013
[ Next Day → ]
[ °C ]   °F
Weather ElementAverageHighLow
Temperature52.5 °F60.8 °F (10:35 am)44.6 °F (10:35 pm)
Dewpoint49.7 °F55.4 °F (7:55 am)42.8 °F (11:55 pm)
Humidity91.4 %100 % (12:35 am)55 % (12:15 pm)
Barometer29.87 in30.00 in (11:55 pm)29.77 in (4:35 am)
Wind Speed7 mph21.9 mph (12:15 pm)
Wind Gust28.8 mph (12:15 pm)
Weather ElementAverage
Visibility7.5 mi
Wind DirectionSSW (206.8 °)

Weather ElementTotal
Precipitation---
Heating Degree Days12.3 (Base 65)
Growing Degree Days2.7 (Base 50)
Averaged from 71 records on February 13, 2013
WEATHER CONDITIONS BREAKOUT
WIND DIRECTION BREAKOUT
WEATHER BY HOUR - FEBRUARY 13, 2013
[ °C ]   °F
Local TimeTemperatureDewpointHumidityBarometerVisibilityWind DirectionWind SpeedGust SpeedPrecipitationEventsConditions
12:35 AM51.8 °F51.8 °F100 %29.82 in10.0 miEast (100°)3.5 mphLight Drizzle
12:55 AM51.8 °F51.8 °F100 %29.82 in10.0 miNE (40°)4.6 mphRainRain
1:15 AM51.8 °F51.8 °F100 %29.81 in7.0 miENE (60°)4.6 mphRainLight Rain
1:35 AM53.6 °F53.6 °F100 %29.82 in10.0 miNNE (30°)4.6 mphThunderstormOvercast
1:55 AM51.8 °F51.8 °F100 %29.82 in5.0 miNNE (20°)4.6 mphRainLight Rain
2:15 AM51.8 °F51.8 °F100 %29.82 in3.0 miNE (50°)3.5 mphOvercast
2:35 AM51.8 °F51.8 °F100 %29.82 in2.5 miCalmRainRain
2:55 AM51.8 °F51.8 °F100 %29.80 in2.0 miENE (60°)4.6 mphRainRain
3:15 AM51.8 °F51.8 °F100 %29.79 in2.5 miCalmLight Drizzle
3:35 AM51.8 °F51.8 °F100 %29.78 in2.5 miCalmOvercast
3:55 AM51.8 °F51.8 °F100 %29.79 in3.0 miCalmOvercast
4:15 AM53.6 °F53.6 °F100 %29.78 in2.5 miCalmThunderstormOvercast
4:35 AM53.6 °F53.6 °F100 %29.77 in1.8 miEast (80°)3.5 mphOvercast
4:55 AM53.6 °F53.6 °F100 %29.78 in1.0 miCalmOvercast
5:15 AM53.6 °F53.6 °F100 %29.77 in1.2 miCalmOvercast
5:35 AM53.6 °F53.6 °F100 %29.78 in1.2 miCalmOvercast
5:55 AM53.6 °F53.6 °F100 %29.79 in0.8 miCalmOvercast
6:15 AM53.6 °F53.6 °F100 %29.82 in0.5 miSW (230°)3.5 mphFogFog
6:35 AM53.6 °F53.6 °F100 %29.81 in0.8 miCalmOvercast
6:55 AM53.6 °F53.6 °F100 %29.81 in0.8 miCalmOvercast
7:15 AM53.6 °F53.6 °F100 %29.81 in0.8 miSSW (210°)3.5 mphOvercast
7:35 AM53.6 °F53.6 °F100 %29.82 in0.2 miSW (230°)3.5 mphFogFog
7:55 AM55.4 °F55.4 °F100 %29.83 in0.2 miWest (260°)8.1 mphFogFog
8:15 AM55.4 °F55.4 °F100 %29.85 in1.5 miWest (270°)10.4 mph19.6 mphLight Drizzle
8:35 AM55.4 °F55.4 °F100 %29.84 in10.0 miWest (260°)11.5 mphOvercast
8:55 AM55.4 °F55.4 °F100 %29.85 in10.0 miWest (260°)9.2 mph16.1 mphScattered Clouds
9:15 AM57.2 °F55.4 °F94 %29.87 in10.0 miWest (270°)10.4 mphClear
9:35 AM57.2 °F55.4 °F94 %29.87 in10.0 miWest (260°)8.1 mphScattered Clouds
9:55 AM59.0 °F55.4 °F88 %29.84 in10.0 miWSW (250°)6.9 mphScattered Clouds
10:15 AM59.0 °F55.4 °F88 %29.86 in10.0 miWest (260°)13.8 mph17.3 mphScattered Clouds
10:35 AM60.8 °F51.8 °F72 %29.86 in10.0 miWest (260°)11.5 mph18.4 mphScattered Clouds
10:55 AM60.8 °F50.0 °F68 %29.87 in10.0 miWest (270°)13.8 mph18.4 mphMostly Cloudy
11:15 AM60.8 °F50.0 °F68 %29.86 in10.0 miWest (280°)10.4 mph16.1 mphMostly Cloudy
11:35 AM60.8 °F46.4 °F59 %29.86 in10.0 miWest (270°)15.0 mph20.7 mphScattered Clouds
11:55 AM60.8 °F46.4 °F59 %29.85 in10.0 miWest (280°)13.8 mphScattered Clouds
12:15 PM60.8 °F44.6 °F55 %29.86 in10.0 miWNW (300°)21.9 mph28.8 mphScattered Clouds
12:35 PM60.8 °F44.6 °F55 %29.86 in10.0 miWest (280°)15.0 mph23.0 mphScattered Clouds
12:55 PM60.8 °F44.6 °F55 %29.86 in10.0 miWest (270°)15.0 mph20.7 mphClear
1:15 PM59.0 °F48.2 °F67 %29.87 in10.0 miWest (280°)12.7 mph16.1 mphClear
1:35 PM59.0 °F46.4 °F63 %29.86 in10.0 miWest (280°)13.8 mph18.4 mphScattered Clouds
1:55 PM59.0 °F44.6 °F59 %29.86 in10.0 miWest (270°)11.5 mph20.7 mphMostly Cloudy
2:15 PM57.2 °F46.4 °F67 %29.85 in10.0 miWNW (290°)8.1 mphMostly Cloudy
2:35 PM55.4 °F50.0 °F82 %29.87 in10.0 miWest (280°)12.7 mph17.3 mphRainLight Rain
2:55 PM53.6 °F50.0 °F88 %29.86 in10.0 miWSW (250°)10.4 mphRainLight Rain
3:15 PM53.6 °F48.2 °F82 %29.86 in10.0 miWSW (250°)9.2 mphRainLight Rain
3:35 PM53.6 °F50.0 °F88 %29.85 in10.0 miWest (260°)9.2 mphRainLight Rain
3:55 PM51.8 °F48.2 °F88 %29.86 in10.0 miWest (270°)9.2 mph18.4 mphRainLight Rain
4:15 PM50.0 °F50.0 °F100 %29.89 in7.0 miWest (280°)12.7 mphRainLight Rain
4:35 PM50.0 °F50.0 °F100 %29.87 in7.0 miWest (280°)9.2 mphRainRain
4:55 PM50.0 °F50.0 °F100 %29.90 in10.0 miWNW (290°)17.3 mphRainLight Rain
5:15 PM50.0 °F50.0 °F100 %29.89 in10.0 miWNW (300°)11.5 mphRainRain
5:35 PM48.2 °F46.4 °F93 %29.86 in10.0 miWNW (290°)8.1 mph13.8 mphRainLight Rain
5:55 PM48.2 °F46.4 °F93 %29.89 in10.0 miNW (310°)8.1 mphOvercast
6:15 PM48.2 °F46.4 °F93 %29.92 in10.0 miWest (270°)8.1 mphOvercast
6:35 PM46.4 °F46.4 °F100 %29.92 in10.0 miWNW (300°)8.1 mphMostly Cloudy
6:55 PM46.4 °F46.4 °F100 %29.93 in10.0 miWest (280°)8.1 mphScattered Clouds
7:15 PM46.4 °F46.4 °F100 %29.93 in10.0 miWNW (300°)8.1 mphClear
7:35 PM46.4 °F46.4 °F100 %29.93 in10.0 miWNW (290°)6.9 mphClear
7:55 PM46.4 °F46.4 °F100 %29.95 in10.0 miWest (270°)5.8 mphClear
8:15 PM46.4 °F46.4 °F100 %29.96 in10.0 miWest (270°)4.6 mphClear
8:35 PM46.4 °F46.4 °F100 %29.97 in10.0 miWest (280°)4.6 mphClear
8:55 PM46.4 °F46.4 °F100 %29.97 in10.0 miWest (260°)3.5 mphClear
9:15 PM46.4 °F46.4 °F100 %29.97 in10.0 miWest (270°)3.5 mphClear
9:35 PM46.4 °F44.6 °F93 %29.98 in10.0 miWest (260°)4.6 mphClear
9:55 PM46.4 °F44.6 °F93 %29.98 in10.0 miWest (260°)3.5 mphClear
10:15 PM46.4 °F44.6 °F93 %29.99 in10.0 miWest (270°)3.5 mphClear
10:35 PM44.6 °F44.6 °F100 %29.98 in10.0 miWNW (290°)3.5 mphScattered Clouds
10:55 PM44.6 °F44.6 °F100 %29.98 in10.0 miWNW (290°)4.6 mphScattered Clouds
11:15 PM44.6 °F44.6 °F100 %29.98 in10.0 miWNW (300°)4.6 mphClear
11:35 PM44.6 °F44.6 °F100 %29.98 in10.0 miNW (320°)4.6 mphClear
11:55 PM44.6 °F42.8 °F93 %30.00 in10.0 miNW (310°)5.8 mphClear
Hourly data recorded from KACJ, located miles away from Buena Vista, Georgia







STORIES FROM OUR PARTNERS